map of TCQ home
TCQ - Airport
Location
City:  Tacna, Tacna, Perú
Name:Coronel FAP Carlos Ciriani Santa Rosa International Airport
ICAO:SPTN
IATA:TCQ

Details
Type:Airport (Aerodrome, Airfield)
Use:Public/Civil, Military, International (customs port of entry)
Latitude:18°03'12"S (-18.053285)
Longitude:70°16'33"W (-70.275821)
Elevation:1538 ft (469 m)
Variation:5.93°W (WMM2015v2 magnetic declination)
-0.20° annual change
Runways:1
Longest:8202 × 148 ft (2500 × 45 m), paved

Time
Time Zone:UTC-5
Local Time:

Weather
METAR:SPTN 041400Z 21003KT 110V280 9999 FEW040 SCT150 24/17 Q1013 RMK PP000
TAF:SPTN 041100Z 0412/0512 VRB02KT 9999 BKN040 OVC120 TX29/0419Z TN20/0511Z
FM041400 20005KT CAVOK
FM041800 22012KT CAVOK
FM050200 24005KT 9999 SCT030 BKN100

Related Locations
Nearby:
Farthest:SYX: 12428 mi / 20001 km
Sanya [Fenghuang Intl (Phoenix Intl)], 46, CN

Find:

   beyond  
but within

Other Information
Maps:
NOTAMs:
Links:
Sources:

  
  • flag of Perú
  • flag of Tacna
  

Sectional Chart

Flight Planning
at skyvector.com

Satellite Image

Google Maps Satellite view

 

Copyright © 2004-2019 Karl L. Swartz. All rights reserved.
The Great Circle Mapper name and logo are trademarks of the Great Circle Mapper.
All other trademarks mentioned herein belong to their respective owners.
Please see credits for attibutions and further copyright information.

  Follow gcmap on Facebook Follow gcmap on Twitter GCmap on LinkedIn

hCard Microformat

Geo Microformat